| time (UTC) | temp C | wind direction | speed KPH | gust KPH | rain 1hr cm | rain 24hr cm | rain mn cm | humidity % | barometer mb |
| 20260507101504 | 9 | 268 | 3.2 | 4.8 | 0.18 | 0.38 | 0.30 | 79 | 1007.5 |
| 20260507101006 | 9 | 294 | 1.6 | 11.3 | 0.18 | 0.36 | 0.28 | 78 | 1007.4 |
| 20260507100504 | 9 | 274 | 4.8 | 12.9 | 0.20 | 0.36 | 0.28 | 78 | 1007.4 |
| 20260507100004 | 9 | 310 | 1.6 | 12.9 | 0.20 | 0.36 | 0.28 | 78 | 1007.1 |
| 20260507095504 | 9 | 285 | 4.8 | 14.5 | 0.18 | 0.33 | 0.25 | 78 | 1007.1 |
| 20260507095006 | 9 | 289 | 4.8 | 11.3 | 0.20 | 0.33 | 0.25 | 78 | 1007.2 |
| 20260507094006 | 10 | 313 | 8.0 | 19.3 | 0.15 | 0.28 | 0.20 | 78 | 1007.1 |
| 20260507093006 | 10 | 21 | 6.4 | 16.1 | 0.13 | 0.25 | 0.18 | 78 | 1006.9 |
| 20260507092504 | 10 | 288 | 4.8 | 19.3 | 0.13 | 0.25 | 0.18 | 78 | 1007.0 |
| 20260507092006 | 10 | 287 | 1.6 | 8.0 | 0.13 | 0.23 | 0.15 | 78 | 1007.0 |
| 20260507091516 | 10 | 271 | 4.8 | 14.5 | 0.10 | 0.20 | 0.13 | 78 | 1007.1 |
| 20260507091033 | 11 | 289 | 3.2 | 12.9 | 0.08 | 0.18 | 0.10 | 78 | 1007.1 |
| 20260507090504 | 11 | 274 | 0.0 | 4.8 | 0.05 | 0.15 | 0.08 | 78 | 1007.3 |
| 20260507090004 | 11 | 275 | 1.6 | 4.8 | 0.05 | 0.15 | 0.08 | 78 | 1007.2 |
| 20260507085504 | 11 | 291 | 0.0 | 9.7 | 0.05 | 0.15 | 0.08 | 78 | 1007.2 |
| 20260507085005 | 11 | 262 | 4.8 | 11.3 | 0.03 | 0.13 | 0.05 | 78 | 1007.3 |
| 20260507084504 | 11 | 286 | 4.8 | 11.3 | 0.05 | 0.13 | 0.05 | 77 | 1007.1 |
| 20260507083504 | 11 | 292 | 4.8 | 11.3 | 0.05 | 0.13 | 0.05 | 77 | 1006.9 |
| 20260507083006 | 11 | 289 | 1.6 | 4.8 | 0.05 | 0.13 | 0.05 | 76 | 1006.9 |
| 20260507082504 | 11 | 324 | 3.2 | 4.8 | 0.05 | 0.13 | 0.05 | 76 | 1006.8 |
| 20260507082006 | 11 | 291 | 1.6 | 9.7 | 0.03 | 0.10 | 0.03 | 76 | 1006.5 |
| 20260507081504 | 11 | 291 | 1.6 | 9.7 | 0.03 | 0.10 | 0.03 | 75 | 1006.8 |
| 20260507080004 | 11 | 329 | 6.4 | 14.5 | 0.03 | 0.10 | 0.03 | 73 | 1006.7 |
| 20260507075504 | 12 | 9 | 6.4 | 14.5 | 0.03 | 0.10 | 0.03 | 73 | 1006.6 |
| 20260507075006 | 12 | 267 | 4.8 | 19.3 | 0.03 | 0.10 | 0.03 | 72 | 1006.8 |
| 20260507074504 | 12 | 330 | 9.7 | 19.3 | 0.00 | 0.08 | 0.00 | 71 | 1006.8 |
| 20260507074006 | 12 | 279 | 11.3 | 19.3 | 0.00 | 0.08 | 0.00 | 70 | 1006.9 |
| 20260507073504 | 12 | 280 | 3.2 | 9.7 | 0.00 | 0.08 | 0.00 | 70 | 1006.6 |
| 20260507073006 | 12 | 296 | 4.8 | 9.7 | 0.00 | 0.08 | 0.00 | 70 | 1006.1 |
| 20260507072504 | 12 | 345 | 1.6 | 12.9 | 0.00 | 0.08 | 0.00 | 70 | 1006.1 |
| 20260507072006 | 12 | 340 | 4.8 | 12.9 | 0.00 | 0.08 | 0.00 | 70 | 1006.1 |
| 20260507071005 | 12 | 296 | 8.0 | 22.5 | 0.00 | 0.08 | 0.00 | 70 | 1006.3 |
| 20260507070504 | 12 | 260 | 4.8 | 20.9 | 0.00 | 0.08 | 0.00 | 70 | 1006.1 |
| 20260507070008 | 12 | 322 | 6.4 | 16.1 | 0.00 | 0.08 | 0.00 | 71 | 1006.0 |
| 20260507065504 | 12 | 280 | 4.8 | 16.1 | 0.00 | 0.08 | 0.00 | 72 | 1006.2 |
| 20260507065006 | 12 | 252 | 8.0 | 16.1 | 0.00 | 0.08 | 0.00 | 72 | 1006.2 |
| 20260507064504 | 12 | 310 | 6.4 | 24.1 | 0.00 | 0.08 | 0.00 | 73 | 1006.3 |
| 20260507064006 | 12 | 45 | 4.8 | 16.1 | 0.00 | 0.08 | 0.00 | 74 | 1006.2 |
| 20260507063504 | 12 | 289 | 8.0 | 16.1 | 0.00 | 0.08 | 0.00 | 75 | 1006.1 |
| 20260507062006 | 13 | 292 | 1.6 | 14.5 | 0.00 | 0.08 | 0.00 | 76 | 1005.7 |
| 20260507061504 | 13 | 289 | 8.0 | 20.9 | 0.00 | 0.08 | 0.00 | 76 | 1005.8 |
| 20260507061006 | 13 | 282 | 4.8 | 14.5 | 0.00 | 0.08 | 0.00 | 76 | 1006.0 |
| 20260507060504 | 13 | 271 | 9.7 | 19.3 | 0.00 | 0.08 | 0.00 | 76 | 1006.2 |
| 20260507060004 | 13 | 277 | 9.7 | 16.1 | 0.00 | 0.08 | 0.00 | 76 | 1006.1 |
| 20260507055504 | 13 | 339 | 4.8 | 14.5 | 0.00 | 0.08 | 0.00 | 77 | 1006.1 |
| 20260507055006 | 13 | 282 | 1.6 | 11.3 | 0.00 | 0.08 | 0.00 | 77 | 1006.3 |
| 20260507054504 | 13 | 284 | 8.0 | 16.1 | 0.00 | 0.08 | 0.00 | 77 | 1006.5 |
| 20260507054006 | 13 | 248 | 11.3 | 20.9 | 0.00 | 0.08 | 0.00 | 77 | 1006.4 |
| 20260507053504 | 13 | 287 | 3.2 | 16.1 | 0.00 | 0.08 | 0.00 | 77 | 1006.3 |
| 20260507053006 | 13 | 304 | 9.7 | 19.3 | 0.00 | 0.08 | 0.00 | 77 | 1006.3 |
| 20260507051504 | 13 | 298 | 8.0 | 16.1 | 0.00 | 0.08 | 0.00 | 79 | 1006.1 |
| 20260507051006 | 13 | 264 | 8.0 | 19.3 | 0.00 | 0.08 | 0.00 | 79 | 1006.1 |
| 20260507050504 | 14 | 304 | 12.9 | 25.7 | 0.00 | 0.08 | 0.00 | 80 | 1006.1 |
| 20260507050005 | 14 | 289 | 14.5 | 29.0 | 0.00 | 0.08 | 0.00 | 80 | 1006.2 |
| 20260507045504 | 15 | 306 | 8.0 | 20.9 | 0.00 | 0.08 | 0.00 | 81 | 1006.1 |
| 20260507045006 | 15 | 271 | 11.3 | 20.9 | 0.00 | 0.08 | 0.00 | 81 | 1006.1 |
| 20260507043504 | 15 | 277 | 11.3 | 19.3 | 0.00 | 0.08 | 0.00 | 81 | 1005.8 |
| 20260507042504 | 15 | 243 | 9.7 | 14.5 | 0.00 | 0.08 | 0.00 | 81 | 1005.9 |
| 20260507042007 | 15 | 226 | 8.0 | 16.1 | 0.00 | 0.08 | 0.00 | 81 | 1006.0 |
| 20260507041006 | 15 | 273 | 6.4 | 11.3 | 0.00 | 0.08 | 0.00 | 81 | 1006.2 |
| 20260507040504 | 15 | 271 | 3.2 | 11.3 | 0.00 | 0.08 | 0.00 | 81 | 1006.3 |
| 20260507035006 | 15 | 224 | 11.3 | 19.3 | 0.00 | 0.08 | 0.08 | 81 | 1006.1 |
| 20260507034005 | 15 | 229 | 11.3 | 25.7 | 0.00 | 0.08 | 0.08 | 80 | 1005.9 |
| 20260507033504 | 15 | 225 | 14.5 | 27.4 | 0.00 | 0.08 | 0.08 | 80 | 1006.0 |
| 20260507033006 | 15 | 222 | 19.3 | 24.1 | 0.00 | 0.08 | 0.08 | 80 | 1005.9 |
| 20260507032504 | 15 | 219 | 16.1 | 25.7 | 0.00 | 0.08 | 0.08 | 80 | 1005.8 |
| 20260507032006 | 15 | 213 | 19.3 | 25.7 | 0.00 | 0.08 | 0.08 | 80 | 1005.7 |
| 20260507031504 | 15 | 214 | 16.1 | 25.7 | 0.00 | 0.08 | 0.08 | 79 | 1005.7 |
| 20260507030504 | 15 | 213 | 11.3 | 19.3 | 0.00 | 0.08 | 0.08 | 80 | 1005.4 |
| 20260507024504 | 15 | 217 | 16.1 | 25.7 | 0.00 | 0.08 | 0.08 | 79 | 1005.7 |
| 20260507024005 | 15 | 209 | 14.5 | 24.1 | 0.00 | 0.08 | 0.08 | 79 | 1005.7 |
| 20260507023504 | 15 | 225 | 17.7 | 25.7 | 0.00 | 0.08 | 0.08 | 79 | 1005.7 |
| 20260507022504 | 15 | 211 | 16.1 | 25.7 | 0.00 | 0.08 | 0.08 | 80 | 1005.7 |
| 20260507022006 | 15 | 232 | 12.9 | 22.5 | 0.00 | 0.08 | 0.08 | 80 | 1005.7 |
| 20260507021504 | 15 | 216 | 16.1 | 24.1 | 0.00 | 0.08 | 0.08 | 80 | 1005.8 |
| 20260507021006 | 15 | 217 | 14.5 | 20.9 | 0.00 | 0.08 | 0.08 | 80 | 1005.6 |
| 20260507020504 | 15 | 213 | 9.7 | 19.3 | 0.00 | 0.08 | 0.08 | 80 | 1005.7 |
| 20260507020004 | 15 | 220 | 9.7 | 19.3 | 0.00 | 0.08 | 0.08 | 80 | 1005.6 |
| 20260507015006 | 15 | 234 | 9.7 | 27.4 | 0.00 | 0.08 | 0.08 | 80 | 1005.8 |
| 20260507013504 | 15 | 211 | 17.7 | 25.7 | 0.00 | 0.08 | 0.08 | 80 | 1005.9 |
| 20260507012504 | 15 | 194 | 12.9 | 20.9 | 0.00 | 0.08 | 0.08 | 80 | 1006.0 |
| 20260507012006 | 15 | 211 | 14.5 | 29.0 | 0.00 | 0.08 | 0.08 | 80 | 1006.0 |
| 20260507011504 | 15 | 210 | 17.7 | 27.4 | 0.00 | 0.08 | 0.08 | 80 | 1006.1 |
| 20260507011006 | 15 | 220 | 16.1 | 29.0 | 0.00 | 0.08 | 0.08 | 80 | 1006.2 |
| 20260507010004 | 14 | 217 | 14.5 | 22.5 | 0.00 | 0.08 | 0.08 | 80 | 1006.2 |
| 20260507005504 | 14 | 205 | 14.5 | 22.5 | 0.03 | 0.08 | 0.08 | 80 | 1006.2 |
| 20260507005006 | 14 | 199 | 14.5 | 22.5 | 0.03 | 0.08 | 0.08 | 80 | 1006.1 |
| 20260507004503 | 14 | 202 | 9.7 | 22.5 | 0.03 | 0.08 | 0.08 | 80 | 1006.2 |
| 20260507004006 | 14 | 202 | 9.7 | 22.5 | 0.03 | 0.08 | 0.08 | 80 | 1006.1 |
| 20260507003504 | 14 | 199 | 9.7 | 19.3 | 0.03 | 0.08 | 0.08 | 80 | 1006.2 |
| 20260507003006 | 14 | 208 | 16.1 | 22.5 | 0.03 | 0.08 | 0.08 | 80 | 1006.1 |
| 20260507002504 | 14 | 223 | 14.5 | 24.1 | 0.05 | 0.08 | 0.08 | 80 | 1006.1 |
| 20260507001007 | 14 | 209 | 14.5 | 24.1 | 0.05 | 0.08 | 0.08 | 80 | 1005.8 |
| 20260507000505 | 14 | 207 | 16.1 | 32.2 | 0.05 | 0.08 | 0.08 | 80 | 1005.8 |
| 20260507000005 | 14 | 207 | 14.5 | 27.4 | 0.05 | 0.08 | 0.08 | 80 | 1005.9 |
| 20260506235504 | 14 | 207 | 14.5 | 25.7 | 0.03 | 0.05 | 0.05 | 81 | 1006.0 |
| 20260506235006 | 14 | 191 | 11.3 | 27.4 | 0.03 | 0.05 | 0.05 | 80 | 1006.0 |
| 20260506234504 | 14 | 202 | 11.3 | 20.9 | 0.03 | 0.05 | 0.05 | 80 | 1006.0 |
| 20260506233505 | 14 | 202 | 11.3 | 20.9 | 0.03 | 0.05 | 0.05 | 80 | 1005.9 |
| 20260506232504 | 14 | 193 | 9.7 | 19.3 | 0.00 | 0.03 | 0.03 | 80 | 1005.9 |
| 20260506232006 | 14 | 178 | 9.7 | 16.1 | 0.00 | 0.03 | 0.03 | 80 | 1005.9 |
| 20260506231504 | 14 | 201 | 9.7 | 20.9 | 0.00 | 0.03 | 0.03 | 80 | 1006.0 |
| 20260506231006 | 14 | 204 | 9.7 | 24.1 | 0.00 | 0.03 | 0.03 | 80 | 1006.0 |
| 20260506230504 | 14 | 183 | 11.3 | 22.5 | 0.00 | 0.03 | 0.03 | 80 | 1006.0 |
| 20260506230004 | 15 | 198 | 8.0 | 16.1 | 0.00 | 0.03 | 0.03 | 80 | 1006.0 |
| 20260506225504 | 15 | 204 | 4.8 | 19.3 | 0.00 | 0.03 | 0.03 | 79 | 1005.9 |
| 20260506224505 | 15 | 193 | 9.7 | 24.1 | 0.03 | 0.03 | 0.03 | 79 | 1006.2 |
| 20260506224006 | 15 | 192 | 9.7 | 20.9 | 0.03 | 0.03 | 0.03 | 79 | 1006.2 |
| 20260506223005 | 15 | 205 | 9.7 | 24.1 | 0.03 | 0.03 | 0.03 | 78 | 1006.3 |
| 20260506222504 | 15 | 198 | 11.3 | 19.3 | 0.03 | 0.03 | 0.03 | 78 | 1006.3 |
| 20260506222006 | 15 | 188 | 9.7 | 16.1 | 0.03 | 0.03 | 0.03 | 78 | 1006.4 |
| 20260506221504 | 15 | 183 | 9.7 | 16.1 | 0.03 | 0.03 | 0.03 | 77 | 1006.4 |
| 20260506221006 | 16 | 179 | 9.7 | 22.5 | 0.03 | 0.03 | 0.03 | 78 | 1006.4 |
| 20260506220504 | 16 | 181 | 9.7 | 19.3 | 0.03 | 0.03 | 0.03 | 78 | 1006.5 |
| 20260506220004 | 16 | 198 | 9.7 | 16.1 | 0.03 | 0.03 | 0.03 | 77 | 1006.7 |
| 20260506215504 | 16 | 194 | 9.7 | 20.9 | 0.03 | 0.03 | 0.03 | 77 | 1006.7 |
| 20260506215006 | 16 | 244 | 12.9 | 20.9 | 0.00 | 0.00 | 0.00 | 77 | 1006.7 |
| 20260506214504 | 16 | 198 | 9.7 | 19.3 | 0.00 | 0.00 | 0.00 | 76 | 1006.8 |
| 20260506214006 | 16 | 175 | 9.7 | 16.1 | 0.00 | 0.00 | 0.00 | 75 | 1006.8 |
| 20260506213503 | 16 | 198 | 11.3 | 24.1 | 0.00 | 0.00 | 0.00 | 75 | 1006.8 |
| 20260506213006 | 16 | 198 | 14.5 | 25.7 | 0.00 | 0.00 | 0.00 | 74 | 1006.8 |
| 20260506212504 | 16 | 198 | 12.9 | 22.5 | 0.00 | 0.00 | 0.00 | 74 | 1006.8 |
| 20260506212006 | 16 | 206 | 19.3 | 38.6 | 0.00 | 0.00 | 0.00 | 74 | 1006.8 |
| 20260506211006 | 16 | 227 | 11.3 | 24.1 | 0.00 | 0.00 | 0.00 | 74 | 1006.8 |
| 20260506210504 | 16 | 209 | 16.1 | 27.4 | 0.00 | 0.00 | 0.00 | 74 | 1006.8 |
| 20260506205504 | 16 | 194 | 11.3 | 20.9 | 0.00 | 0.00 | 0.00 | 74 | 1007.0 |
| 20260506205006 | 16 | 150 | 9.7 | 22.5 | 0.00 | 0.00 | 0.00 | 73 | 1007.0 |
| 20260506204006 | 16 | 185 | 11.3 | 20.9 | 0.00 | 0.00 | 0.00 | 72 | 1007.0 |
| 20260506203504 | 16 | 193 | 12.9 | 22.5 | 0.00 | 0.00 | 0.00 | 71 | 1007.1 |
| 20260506203006 | 16 | 166 | 11.3 | 24.1 | 0.00 | 0.00 | 0.00 | 71 | 1007.1 |
| 20260506202504 | 17 | 186 | 8.0 | 19.3 | 0.00 | 0.00 | 0.00 | 71 | 1007.0 |
| 20260506202005 | 17 | 201 | 11.3 | 22.5 | 0.00 | 0.00 | 0.00 | 71 | 1006.9 |
| 20260506201504 | 17 | 194 | 9.7 | 20.9 | 0.00 | 0.00 | 0.00 | 70 | 1006.8 |
| 20260506201005 | 17 | 196 | 11.3 | 19.3 | 0.00 | 0.00 | 0.00 | 70 | 1006.8 |
| 20260506200004 | 17 | 172 | 9.7 | 24.1 | 0.00 | 0.00 | 0.00 | 69 | 1006.8 |
| 20260506195504 | 17 | 192 | 11.3 | 27.4 | 0.00 | 0.00 | 0.00 | 68 | 1006.9 |
| 20260506195006 | 17 | 197 | 9.7 | 19.3 | 0.00 | 0.00 | 0.00 | 68 | 1007.1 |
| 20260506194504 | 17 | 198 | 12.9 | 24.1 | 0.00 | 0.00 | 0.00 | 67 | 1007.2 |
| 20260506194006 | 18 | 201 | 11.3 | 19.3 | 0.00 | 0.00 | 0.00 | 66 | 1007.2 |
| 20260506193504 | 18 | 188 | 9.7 | 19.3 | 0.00 | 0.00 | 0.00 | 66 | 1007.2 |
| 20260506192504 | 18 | 201 | 9.7 | 22.5 | 0.00 | 0.00 | 0.00 | 65 | 1007.1 |
| 20260506192005 | 18 | 140 | 9.7 | 19.3 | 0.00 | 0.00 | 0.00 | 64 | 1007.1 |
| 20260506191504 | 18 | 187 | 9.7 | 22.5 | 0.00 | 0.00 | 0.00 | 63 | 1007.1 |
| 20260506191006 | 18 | 169 | 9.7 | 19.3 | 0.00 | 0.00 | 0.00 | 63 | 1007.0 |
| 20260506190504 | 18 | 195 | 11.3 | 25.7 | 0.00 | 0.00 | 0.00 | 63 | 1007.0 |
| 20260506190005 | 19 | 190 | 11.3 | 22.5 | 0.00 | 0.00 | 0.00 | 63 | 1007.0 |
| 20260506185504 | 19 | 198 | 11.3 | 24.1 | 0.00 | 0.00 | 0.00 | 62 | 1007.1 |
| 20260506185006 | 19 | 184 | 12.9 | 19.3 | 0.00 | 0.00 | 0.00 | 62 | 1007.1 |
| 20260506184504 | 19 | 192 | 12.9 | 29.0 | 0.00 | 0.00 | 0.00 | 62 | 1007.2 |
| 20260506184006 | 19 | 194 | 12.9 | 22.5 | 0.00 | 0.00 | 0.00 | 62 | 1007.1 |
| 20260506183504 | 19 | 191 | 11.3 | 20.9 | 0.00 | 0.00 | 0.00 | 62 | 1007.1 |
| 20260506183006 | 19 | 197 | 14.5 | 27.4 | 0.00 | 0.00 | 0.00 | 62 | 1007.2 |
| 20260506182006 | 20 | 172 | 14.5 | 33.8 | 0.00 | 0.00 | 0.00 | 61 | 1007.3 |
| 20260506181504 | 20 | 189 | 14.5 | 33.8 | 0.00 | 0.00 | 0.00 | 61 | 1007.3 |
| 20260506175504 | 20 | 197 | 16.1 | 35.4 | 0.00 | 0.00 | 0.00 | 60 | 1007.6 |
| 20260506174504 | 20 | 193 | 12.9 | 32.2 | 0.00 | 0.00 | 0.00 | 60 | 1007.7 |
| 20260506174006 | 20 | 182 | 14.5 | 22.5 | 0.00 | 0.00 | 0.00 | 60 | 1007.8 |
| 20260506173504 | 21 | 186 | 11.3 | 20.9 | 0.00 | 0.00 | 0.00 | 60 | 1007.8 |
| 20260506172504 | 20 | 186 | 11.3 | 24.1 | 0.00 | 0.00 | 0.00 | 60 | 1007.9 |
| 20260506172007 | 20 | 200 | 14.5 | 32.2 | 0.00 | 0.00 | 0.00 | 60 | 1007.9 |
| 20260506171006 | 20 | 206 | 12.9 | 25.7 | 0.00 | 0.00 | 0.00 | 60 | 1007.9 |
| 20260506170504 | 20 | 185 | 14.5 | 27.4 | 0.00 | 0.00 | 0.00 | 60 | 1008.0 |
| 20260506170004 | 20 | 204 | 14.5 | 24.1 | 0.00 | 0.00 | 0.00 | 60 | 1008.1 |
| 20260506165504 | 20 | 197 | 11.3 | 25.7 | 0.00 | 0.00 | 0.00 | 60 | 1008.1 |
| 20260506165006 | 20 | 194 | 9.7 | 27.4 | 0.00 | 0.00 | 0.00 | 60 | 1008.1 |
| 20260506164504 | 20 | 202 | 16.1 | 32.2 | 0.00 | 0.00 | 0.00 | 60 | 1008.2 |
| 20260506162504 | 20 | 196 | 16.1 | 35.4 | 0.00 | 0.00 | 0.00 | 60 | 1008.5 |
| 20260506162005 | 20 | 176 | 16.1 | 27.4 | 0.00 | 0.00 | 0.00 | 60 | 1008.6 |
| 20260506161504 | 20 | 207 | 16.1 | 32.2 | 0.00 | 0.00 | 0.00 | 60 | 1008.6 |
| 20260506161006 | 20 | 202 | 14.5 | 25.7 | 0.00 | 0.00 | 0.00 | 60 | 1008.7 |
| 20260506160504 | 20 | 180 | 17.7 | 32.2 | 0.00 | 0.00 | 0.00 | 60 | 1008.9 |
| 20260506160004 | 21 | 200 | 16.1 | 32.2 | 0.00 | 0.00 | 0.00 | 60 | 1008.9 |
| 20260506155006 | 21 | 203 | 11.3 | 25.7 | 0.00 | 0.00 | 0.00 | 60 | 1009.1 |
| 20260506154504 | 21 | 213 | 11.3 | 25.7 | 0.00 | 0.00 | 0.00 | 59 | 1009.0 |
| 20260506154006 | 21 | 179 | 16.1 | 32.2 | 0.00 | 0.00 | 0.00 | 59 | 1009.2 |
| 20260506153504 | 21 | 187 | 14.5 | 24.1 | 0.00 | 0.00 | 0.00 | 59 | 1009.3 |
| 20260506153006 | 21 | 146 | 12.9 | 33.8 | 0.00 | 0.00 | 0.00 | 59 | 1009.2 |
| 20260506152504 | 21 | 216 | 16.1 | 32.2 | 0.00 | 0.00 | 0.00 | 59 | 1009.3 |
| 20260506152006 | 21 | 196 | 19.3 | 32.2 | 0.00 | 0.00 | 0.00 | 59 | 1009.4 |
| 20260506151504 | 21 | 184 | 14.5 | 27.4 | 0.00 | 0.00 | 0.00 | 59 | 1009.4 |
| 20260506151006 | 21 | 234 | 16.1 | 27.4 | 0.00 | 0.00 | 0.00 | 60 | 1009.5 |
| 20260506150505 | 21 | 203 | 14.5 | 24.1 | 0.00 | 0.00 | 0.00 | 60 | 1009.5 |
| 20260506150004 | 20 | 196 | 16.1 | 22.5 | 0.00 | 0.00 | 0.00 | 60 | 1009.6 |
| 20260506145504 | 20 | 194 | 11.3 | 22.5 | 0.00 | 0.00 | 0.00 | 61 | 1009.4 |
| 20260506145006 | 20 | 197 | 14.5 | 25.7 | 0.00 | 0.00 | 0.00 | 61 | 1009.4 |
| 20260506144504 | 20 | 183 | 16.1 | 27.4 | 0.00 | 0.00 | 0.00 | 61 | 1009.4 |
| 20260506144006 | 20 | 170 | 14.5 | 20.9 | 0.00 | 0.00 | 0.00 | 61 | 1009.4 |
| 20260506143503 | 20 | 188 | 12.9 | 29.0 | 0.00 | 0.00 | 0.00 | 62 | 1009.4 |
| 20260506143005 | 20 | 181 | 11.3 | 20.9 | 0.00 | 0.00 | 0.00 | 61 | 1009.3 |
| 20260506142504 | 20 | 207 | 14.5 | 24.1 | 0.00 | 0.00 | 0.00 | 62 | 1009.3 |
| 20260506142006 | 20 | 190 | 11.3 | 25.7 | 0.00 | 0.00 | 0.00 | 62 | 1009.3 |
| 20260506141504 | 20 | 183 | 9.7 | 22.5 | 0.00 | 0.00 | 0.00 | 63 | 1009.4 |
| 20260506141006 | 19 | 208 | 9.7 | 22.5 | 0.00 | 0.00 | 0.00 | 63 | 1009.5 |
| 20260506140504 | 19 | 184 | 12.9 | 19.3 | 0.00 | 0.00 | 0.00 | 63 | 1009.5 |
| 20260506140004 | 18 | 188 | 9.7 | 19.3 | 0.00 | 0.00 | 0.00 | 64 | 1009.5 |
| 20260506135504 | 18 | 196 | 9.7 | 20.9 | 0.00 | 0.00 | 0.00 | 64 | 1009.4 |
| 20260506134504 | 18 | 191 | 12.9 | 20.9 | 0.00 | 0.00 | 0.00 | 64 | 1009.8 |
| 20260506134007 | 18 | 213 | 9.7 | 19.3 | 0.00 | 0.00 | 0.00 | 64 | 1009.9 |
| 20260506133504 | 18 | 199 | 11.3 | 24.1 | 0.00 | 0.00 | 0.00 | 64 | 1010.0 |
| 20260506132504 | 18 | 195 | 11.3 | 25.7 | 0.00 | 0.00 | 0.00 | 64 | 1010.0 |
| 20260506131504 | 18 | 209 | 11.3 | 22.5 | 0.00 | 0.00 | 0.00 | 65 | 1009.9 |
| 20260506131006 | 18 | 171 | 12.9 | 22.5 | 0.00 | 0.00 | 0.00 | 65 | 1009.9 |
| 20260506130504 | 18 | 194 | 14.5 | 27.4 | 0.00 | 0.00 | 0.00 | 65 | 1009.9 |
| 20260506125504 | 17 | 211 | 19.3 | 27.4 | 0.00 | 0.00 | 0.00 | 66 | 1009.9 |
| 20260506124504 | 17 | 204 | 17.7 | 32.2 | 0.00 | 0.00 | 0.00 | 67 | 1010.2 |
| 20260506123504 | 17 | 203 | 12.9 | 25.7 | 0.00 | 0.00 | 0.00 | 68 | 1010.1 |
| 20260506123006 | 17 | 209 | 16.1 | 32.2 | 0.00 | 0.00 | 0.00 | 68 | 1010.0 |
| 20260506122504 | 16 | 201 | 14.5 | 27.4 | 0.00 | 0.00 | 0.00 | 69 | 1009.8 |
| 20260506121504 | 16 | 209 | 14.5 | 29.0 | 0.00 | 0.00 | 0.00 | 69 | 1009.9 |
| 20260506121006 | 16 | 210 | 11.3 | 20.9 | 0.00 | 0.00 | 0.00 | 70 | 1010.1 |
| 20260506120504 | 16 | 216 | 14.5 | 22.5 | 0.00 | 0.00 | 0.00 | 70 | 1010.3 |
| 20260506120004 | 16 | 217 | 12.9 | 20.9 | 0.00 | 0.00 | 0.00 | 70 | 1010.3 |
| 20260506115506 | 16 | 200 | 11.3 | 22.5 | 0.00 | 0.00 | 0.00 | 70 | 1010.2 |
| 20260506115006 | 16 | 180 | 12.9 | 25.7 | 0.00 | 0.00 | 0.00 | 70 | 1010.3 |
| 20260506114504 | 16 | 195 | 12.9 | 24.1 | 0.00 | 0.00 | 0.00 | 71 | 1010.6 |
| 20260506114007 | 16 | 186 | 9.7 | 20.9 | 0.00 | 0.00 | 0.00 | 71 | 1010.6 |
| 20260506113504 | 16 | 208 | 11.3 | 19.3 | 0.00 | 0.00 | 0.00 | 71 | 1010.5 |
| 20260506113006 | 16 | 175 | 11.3 | 19.3 | 0.00 | 0.00 | 0.00 | 71 | 1010.3 |
| 20260506112006 | 15 | 211 | 11.3 | 20.9 | 0.00 | 0.00 | 0.00 | 72 | 1010.4 |
| 20260506111504 | 15 | 201 | 9.7 | 19.3 | 0.00 | 0.00 | 0.00 | 72 | 1010.4 |
| 20260506111006 | 15 | 184 | 11.3 | 19.3 | 0.00 | 0.00 | 0.00 | 72 | 1010.4 |
| 20260506110004 | 15 | 190 | 9.7 | 20.9 | 0.00 | 0.00 | 0.00 | 72 | 1010.4 |
| 20260506105005 | 15 | 211 | 8.0 | 20.9 | 0.00 | 0.00 | 0.00 | 71 | 1010.3 |
| 20260506104504 | 15 | 188 | 8.0 | 14.5 | 0.00 | 0.00 | 0.00 | 71 | 1010.3 |
| 20260506103504 | 15 | 188 | 6.4 | 14.5 | 0.00 | 0.00 | 0.00 | 70 | 1010.5 |
| 20260506102504 | 16 | 198 | 12.9 | 25.7 | 0.00 | 0.00 | 0.00 | 70 | 1010.4 |
| 20260506102007 | 16 | 180 | 8.0 | 16.1 | 0.00 | 0.00 | 0.00 | 70 | 1010.3 |